FW5910 Weather Reports


time (UTC)temp
C
wind
direction
speed
KPH
gust
KPH
rain 1hr
cm
rain 24hr
cm
rain mn
cm
humidity
%
barometer
mb
20260905134106 10 246 3.2 8.0 0.00 0.23 0.00 72 1017.6
20260905133603 10 226 1.6 6.4 0.00 0.23 0.00 72 1017.6
20260905132601 10 312 1.6 4.8 0.00 0.23 0.00 72 1017.7
20260905132101 10 312 1.6 4.8 0.00 0.25 0.00 71 1017.6
20260905131603 10 313 1.6 3.2 0.00 0.25 0.00 72 1017.5
20260905130559 10 313 1.6 4.8 0.00 0.25 0.00 71 1017.1
20260905130100 10 285 3.2 8.0 0.00 0.25 0.00 72 1017.1
20260905125559 10 288 3.2 8.0 0.00 0.25 0.00 72 1016.6
20260905125058 10 67 3.2 6.4 0.00 0.25 0.00 72 1016.5
20260905124559 10 344 4.8 9.7 0.00 0.25 0.00 71 1016.5
20260905124100 10 337 4.8 9.7 0.00 0.25 0.00 71 1016.5
20260905123600 10 333 1.6 6.4 0.00 0.25 0.00 72 1016.4
20260905122559 10 90 1.6 6.4 0.00 0.28 0.00 71 1016.6
20260905122052 10 69 0.0 4.8 0.00 0.28 0.00 72 1016.8
20260905121551 10 61 0.0 4.8 0.00 0.28 0.00 73 1016.8
20260905120549 10 275 0.0 1.6 0.00 0.28 0.00 73 1016.8
20260905120050 10 275 1.6 4.8 0.00 0.28 0.00 73 1016.9
20260905115548 10 275 1.6 4.8 0.00 0.28 0.00 73 1016.5
20260905115049 10 263 0.0 4.8 0.00 0.28 0.00 73 1016.7
20260905114550 10 234 0.0 0.0 0.00 0.28 0.00 73 1016.9
20260905114047 10 234 0.0 1.6 0.00 0.28 0.00 73 1016.9
20260905113547 10 233 0.0 1.6 0.00 0.28 0.00 73 1016.8
20260905112547 10 233 1.6 6.4 0.00 0.28 0.00 73 1016.8
20260905112046 10 234 1.6 8.0 0.00 0.28 0.00 72 1016.7
20260905111545 10 229 3.2 8.0 0.00 0.28 0.00 72 1016.6
20260905111044 10 215 1.6 8.0 0.00 0.28 0.00 73 1016.7
20260905110544 10 154 0.0 4.8 0.00 0.28 0.00 73 1016.7
20260905110046 10 205 0.0 0.0 0.00 0.28 0.00 73 1016.9
20260905105546 10 219 0.0 0.0 0.00 0.28 0.00 73 1016.8
20260905105043 10 212 0.0 0.0 0.00 0.28 0.00 72 1016.6
20260905104544 10 202 0.0 0.0 0.00 0.28 0.00 73 1016.6
20260905104043 10 194 0.0 0.0 0.00 0.28 0.00 73 1016.6
20260905103541 10 336 0.0 0.0 0.00 0.28 0.00 72 1016.5
20260905103039 10 339 0.0 0.0 0.00 0.28 0.00 72 1016.0
20260905102539 10 339 0.0 0.0 0.00 0.28 0.00 72 1016.1
20260905101539 10 339 0.0 0.0 0.00 0.28 0.00 72 1016.1
20260905101040 10 339 0.0 0.0 0.00 0.28 0.00 72 1016.1
20260905100539 10 339 0.0 0.0 0.00 0.28 0.00 72 1015.9
20260905100039 10 342 0.0 0.0 0.00 0.28 0.00 72 1015.9
20260905095540 10 343 0.0 0.0 0.00 0.28 0.00 72 1016.0
20260905095036 10 342 0.0 0.0 0.00 0.28 0.00 72 1016.0
20260905094534 10 342 0.0 0.0 0.00 0.28 0.00 71 1016.1
20260905094035 10 343 0.0 0.0 0.00 0.28 0.00 71 1016.2
20260905093535 10 342 0.0 0.0 0.00 0.28 0.00 71 1016.1
20260905092535 10 342 0.0 0.0 0.00 0.28 0.00 71 1016.2
20260905092034 10 343 0.0 0.0 0.00 0.28 0.00 71 1016.4
20260905091534 10 344 0.0 0.0 0.00 0.28 0.00 72 1016.4
20260905091035 10 344 0.0 0.0 0.00 0.28 0.00 72 1016.3
20260905090534 10 344 0.0 0.0 0.00 0.28 0.00 72 1015.9
20260905090034 10 344 0.0 0.0 0.00 0.28 0.00 72 1015.7
20260905085534 10 344 0.0 0.0 0.00 0.28 0.00 71 1016.0
20260905085035 10 343 0.0 0.0 0.00 0.28 0.00 72 1016.0
20260905084535 10 343 0.0 0.0 0.00 0.28 0.00 72 1016.2
20260905084036 10 343 0.0 0.0 0.00 0.28 0.00 72 1016.3
20260905083035 10 342 0.0 0.0 0.00 0.28 0.00 72 1016.3
20260905082535 10 344 0.0 0.0 0.00 0.28 0.00 72 1016.3
20260905082035 10 344 0.0 0.0 0.00 0.28 0.00 72 1016.2
20260905081537 10 344 0.0 0.0 0.00 0.28 0.00 72 1016.2
20260905081036 10 344 0.0 0.0 0.00 0.28 0.00 71 1016.3
20260905080536 10 344 0.0 0.0 0.00 0.28 0.00 72 1016.3
20260905075534 10 10 0.0 0.0 0.00 0.28 0.00 72 1016.4
20260905075037 11 11 0.0 0.0 0.00 0.28 0.00 71 1016.3
20260905073531 11 11 0.0 0.0 0.00 0.28 0.00 71 1016.4
20260905072529 11 11 0.0 0.0 0.00 0.28 0.00 69 1016.8
20260905071529 11 11 0.0 0.0 0.00 0.28 0.00 71 1016.8
20260905071031 11 12 0.0 0.0 0.00 0.28 0.00 71 1016.7
20260905070529 11 12 0.0 0.0 0.00 0.28 0.00 71 1016.6
20260905065531 10 12 0.0 0.0 0.00 0.28 0.00 70 1016.4
20260905065033 11 9 0.0 0.0 0.00 0.28 0.00 71 1016.2
20260905064531 11 9 0.0 0.0 0.00 0.28 0.00 70 1016.1
20260905064029 11 9 0.0 0.0 0.00 0.28 0.00 70 1015.9
20260905063532 11 9 0.0 0.0 0.00 0.28 0.00 70 1015.7
20260905062029 11 90 0.0 0.0 0.00 0.28 0.00 70 1016.2
20260905061530 11 90 0.0 0.0 0.00 0.28 0.00 69 1016.1
20260905061029 12 90 0.0 0.0 0.00 0.28 0.00 69 1016.0
20260905060529 12 90 0.0 0.0 0.00 0.28 0.00 69 1016.1
20260905060029 12 46 0.0 0.0 0.00 0.28 0.00 67 1016.2
20260905055529 12 46 0.0 0.0 0.00 0.28 0.28 67 1016.2
20260905055030 12 46 0.0 0.0 0.00 0.28 0.28 66 1016.2
20260905054529 12 46 0.0 0.0 0.00 0.28 0.28 66 1016.3
20260905053530 12 46 0.0 0.0 0.00 0.28 0.28 66 1016.5
20260905053029 12 46 0.0 6.4 0.00 0.28 0.28 66 1016.5
20260905052530 12 47 1.6 6.4 0.00 0.28 0.28 66 1016.6
20260905052029 12 78 0.0 4.8 0.00 0.28 0.28 66 1016.5
20260905051529 12 126 0.0 0.0 0.00 0.28 0.28 67 1016.6
20260905050531 12 329 0.0 0.0 0.00 0.28 0.28 67 1016.2
20260905050031 12 217 0.0 0.0 0.00 0.28 0.28 67 1016.0
20260905045530 12 217 0.0 0.0 0.00 0.28 0.28 66 1016.1
20260905045029 12 217 0.0 0.0 0.00 0.28 0.28 64 1016.2
20260905044530 12 217 0.0 0.0 0.00 0.28 0.28 64 1016.2
20260905044029 12 217 0.0 0.0 0.00 0.28 0.28 63 1016.3
20260905043531 12 217 0.0 0.0 0.00 0.28 0.28 62 1016.3
20260905043029 12 217 0.0 0.0 0.00 0.28 0.28 61 1016.3
20260905042530 12 217 0.0 0.0 0.00 0.28 0.28 62 1016.3
20260905042029 12 217 0.0 0.0 0.00 0.28 0.28 65 1016.3
20260905041530 12 217 0.0 0.0 0.00 0.28 0.28 64 1016.5
20260905040531 12 217 0.0 0.0 0.00 0.28 0.28 60 1016.2
20260905040029 12 217 0.0 0.0 0.00 0.28 0.28 61 1016.2
20260905035530 12 217 0.0 0.0 0.00 0.28 0.28 61 1016.2
20260905034529 12 218 0.0 0.0 0.00 0.28 0.28 69 1016.0
20260905033531 13 218 0.0 0.0 0.00 0.28 0.28 67 1016.0
20260905033030 13 217 0.0 0.0 0.00 0.28 0.28 66 1016.0
20260905032532 13 224 0.0 0.0 0.00 0.28 0.28 67 1015.9
20260905032031 13 225 0.0 0.0 0.00 0.28 0.28 67 1016.0
20260905031032 13 225 0.0 0.0 0.00 0.28 0.28 66 1016.0
20260905030529 13 225 0.0 0.0 0.00 0.28 0.28 65 1016.1
20260905030030 13 225 0.0 0.0 0.00 0.28 0.28 64 1016.2
20260905025530 13 225 0.0 0.0 0.00 0.28 0.28 64 1016.2
20260905025029 13 224 0.0 0.0 0.00 0.28 0.28 62 1016.3
20260905024529 13 0 0.0 0.0 0.00 0.28 0.28 62 1016.3
20260905024029 13 0 0.0 0.0 0.00 0.28 0.28 60 1016.2
20260905023529 13 0 0.0 0.0 0.00 0.28 0.28 60 1016.1
20260905022528 13 0 0.0 0.0 0.00 0.28 0.28 57 1016.0
20260905022029 13 0 0.0 0.0 0.00 0.28 0.28 56 1015.7
20260905021529 14 0 0.0 0.0 0.00 0.28 0.28 57 1015.7
20260905020529 14 0 0.0 0.0 0.00 0.28 0.28 59 1015.5
20260905020027 14 0 0.0 0.0 0.00 0.28 0.28 60 1015.4
20260905015521 14 0 0.0 0.0 0.00 0.28 0.28 61 1015.5
20260905015015 14 0 0.0 0.0 0.00 0.28 0.28 59 1015.4
20260905014516 15 0 0.0 0.0 0.00 0.28 0.28 59 1015.3
20260905013010 15 0 0.0 0.0 0.00 0.28 0.28 57 1015.1
20260905012508 15 0 0.0 0.0 0.00 0.28 0.28 56 1015.1
20260905012008 16 0 0.0 0.0 0.00 0.28 0.28 56 1015.0
20260905011507 16 0 0.0 0.0 0.00 0.28 0.28 56 1015.0
20260905011007 16 0 0.0 0.0 0.00 0.28 0.28 55 1015.2
20260905010004 16 0 0.0 0.0 0.00 0.28 0.28 55 1015.1
20260905005504 16 0 0.0 0.0 0.00 0.28 0.28 54 1015.2
20260905005005 16 0 0.0 0.0 0.00 0.28 0.28 52 1015.3
20260905004005 16 0 0.0 0.0 0.00 0.28 0.28 51 1015.4
20260905003502 16 0 0.0 0.0 0.00 0.28 0.28 50 1015.3
20260905003001 16 0 0.0 0.0 0.00 0.28 0.28 50 1015.2
20260905002504 16 0 0.0 0.0 0.00 0.28 0.28 50 1015.3
20260905002001 17 0 0.0 0.0 0.00 0.28 0.28 49 1015.2
20260905001458 17 0 0.0 0.0 0.00 0.28 0.28 48 1015.1
20260905000952 17 0 0.0 0.0 0.00 0.28 0.28 48 1014.8
20260905000449 17 0 0.0 0.0 0.00 0.28 0.28 47 1014.8
20260904235950 17 221 0.0 0.0 0.00 0.28 0.28 46 1014.9
20260904235448 17 221 0.0 0.0 0.00 0.28 0.28 44 1014.9
20260904234947 17 221 0.0 0.0 0.00 0.28 0.28 43 1014.9
20260904234447 17 220 0.0 0.0 0.00 0.28 0.28 45 1015.0
20260904233444 17 220 0.0 0.0 0.00 0.28 0.28 44 1014.9
20260904232942 17 220 0.0 0.0 0.00 0.28 0.28 45 1014.8
20260904232440 17 220 0.0 0.0 0.00 0.28 0.28 43 1014.9
20260904231937 17 220 0.0 0.0 0.00 0.28 0.28 43 1014.9
20260904230935 17 220 0.0 0.0 0.00 0.28 0.28 45 1015.0
20260904230432 17 0 0.0 0.0 0.00 0.28 0.28 45 1015.0
20260904225929 17 0 0.0 0.0 0.00 0.28 0.28 45 1015.2
20260904225429 17 0 0.0 1.6 0.00 0.28 0.28 46 1015.1
20260904224929 17 0 0.0 1.6 0.00 0.28 0.28 44 1015.1
20260904224429 17 0 0.0 0.0 0.00 0.28 0.28 45 1015.1
20260904223930 17 117 0.0 0.0 0.00 0.28 0.28 44 1015.0
20260904222929 17 142 1.6 6.4 0.00 0.28 0.28 47 1015.1
20260904221921 16 160 1.6 6.4 0.00 0.28 0.28 46 1015.1
20260904221416 16 168 1.6 6.4 0.00 0.28 0.28 46 1015.0
20260904220910 16 173 1.6 3.2 0.00 0.28 0.28 47 1014.9
20260904220403 16 171 1.6 4.8 0.00 0.28 0.28 46 1014.9
20260904215903 16 0 1.6 6.4 0.00 0.28 0.28 48 1015.0
20260904215404 16 161 1.6 6.4 0.00 0.28 0.28 49 1015.0
20260904214905 16 148 1.6 6.4 0.00 0.28 0.28 48 1015.1
20260904214404 16 219 1.6 8.0 0.00 0.28 0.28 49 1015.2
20260904213402 17 209 1.6 6.4 0.00 0.28 0.28 53 1015.3
20260904212903 17 199 1.6 9.7 0.00 0.28 0.28 57 1015.3
20260904212404 17 200 3.2 9.7 0.00 0.28 0.28 57 1015.1
20260904211903 16 263 3.2 11.3 0.00 0.28 0.28 57 1015.2
20260904211406 16 278 3.2 11.3 0.00 0.28 0.28 59 1015.2
20260904210903 16 135 4.8 11.3 0.00 0.28 0.28 61 1015.2
20260904210403 16 173 3.2 9.7 0.00 0.28 0.28 63 1015.1
20260904204402 16 0 0.0 4.8 0.00 0.28 0.28 67 1014.8
20260904203903 15 126 0.0 1.6 0.00 0.28 0.28 70 1014.8
20260904203400 15 128 1.6 4.8 0.00 0.28 0.28 71 1014.8
20260904202852 14 126 3.2 6.4 0.00 0.28 0.28 73 1014.9
20260904202346 14 0 1.6 6.4 0.00 0.28 0.28 74 1014.9
20260904201841 14 0 0.0 6.4 0.00 0.28 0.28 71 1014.9
20260904201334 14 174 0.0 0.0 0.00 0.28 0.28 71 1015.0
20260904200838 14 175 0.0 0.0 0.00 0.28 0.28 73 1015.0
20260904200332 14 0 0.0 0.0 0.00 0.28 0.28 73 1015.1
20260904195831 14 0 0.0 0.0 0.00 0.28 0.28 72 1015.0
20260904195331 14 86 0.0 0.0 0.00 0.28 0.28 72 1014.9
20260904194830 13 98 1.6 6.4 0.00 0.28 0.28 74 1014.9
20260904194332 13 0 1.6 6.4 0.00 0.28 0.28 74 1015.0
20260904193332 13 0 0.0 3.2 0.00 0.28 0.28 76 1015.0
20260904192831 13 0 0.0 3.2 0.00 0.28 0.28 78 1015.0
20260904192333 13 0 1.6 3.2 0.00 0.28 0.28 78 1015.0
20260904191833 12 0 1.6 4.8 0.00 0.28 0.28 78 1015.1
20260904191330 12 0 1.6 4.8 0.00 0.28 0.28 79 1015.1
20260904190830 12 0 1.6 4.8 0.00 0.28 0.28 79 1015.2
20260904190331 12 0 0.0 3.2 0.00 0.28 0.28 80 1015.0
20260904185830 12 0 0.0 1.6 0.00 0.28 0.28 80 1015.0
20260904185331 12 0 0.0 3.2 0.00 0.28 0.28 80 1015.0
20260904184832 12 0 0.0 3.2 0.00 0.28 0.28 80 1015.0
20260904184332 12 0 0.0 3.2 0.00 0.28 0.28 80 1014.9
20260904183319 11 0 0.0 3.2 0.00 0.38 0.28 80 1014.9
20260904182817 11 0 0.0 3.2 0.00 0.53 0.28 81 1014.8
20260904182320 11 0 0.0 3.2 0.00 0.53 0.28 81 1014.8
20260904181817 11 0 0.0 0.0 0.00 0.53 0.28 81 1014.8
20260904181317 11 107 0.0 0.0 0.00 0.53 0.28 81 1014.9
20260904180314 11 107 1.6 4.8 0.00 0.56 0.28 81 1014.9
20260904175312 11 92 3.2 6.4 0.00 0.58 0.28 82 1014.8
20260904174812 11 0 1.6 6.4 0.00 0.58 0.28 82 1014.6
20260904173812 11 29 0.0 0.0 0.00 0.58 0.28 82 1014.5
20260904172809 10 29 0.0 4.8 0.00 0.58 0.28 83 1014.4
20260904172307 10 33 0.0 4.8 0.00 0.58 0.28 82 1014.2
20260904171806 10 44 0.0 3.2 0.00 0.58 0.28 83 1014.2
20260904170808 10 44 0.0 0.0 0.00 0.58 0.28 82 1014.0
20260904170305 10 44 0.0 1.6 0.00 0.58 0.28 83 1013.9
20260904165808 10 44 0.0 3.2 0.00 0.58 0.28 83 1013.9
20260904165305 10 44 0.0 3.2 0.00 0.58 0.28 82 1013.8
20260904164808 10 71 0.0 3.2 0.00 0.58 0.28 83 1013.8
20260904164308 10 349 1.6 4.8 0.00 0.58 0.28 83 1013.7
20260904163805 10 349 1.6 4.8 0.00 0.58 0.28 83 1013.7
20260904163309 10 355 1.6 4.8 0.00 0.58 0.28 83 1013.6
20260904162808 10 0 1.6 4.8 0.00 0.58 0.28 83 1013.6
20260904162307 10 347 0.0 4.8 0.00 0.58 0.28 83 1013.3
20260904161804 10 349 1.6 4.8 0.00 0.58 0.28 83 1013.3
20260904161306 9 11 1.6 4.8 0.00 0.58 0.28 84 1013.3
20260904160805 9 74 1.6 4.8 0.03 0.58 0.28 84 1013.2
20260904155805 9 339 1.6 6.4 0.03 0.56 0.28 84 1013.0
20260904155307 9 341 1.6 6.4 0.03 0.56 0.28 84 1013.0
20260904154807 9 340 1.6 4.8 0.05 0.56 0.28 84 1012.9
20260904153303 9 334 1.6 6.4 0.13 0.56 0.28 84 1012.8
20260904152758 9 339 3.2 4.8 0.13 0.56 0.28 84 1012.7
20260904152252 9 341 3.2 6.4 0.15 0.58 0.28 84 1012.8
20260904151745 9 345 3.2 6.4 0.18 0.58 0.28 84 1012.9
20260904151243 9 346 1.6 6.4 0.18 0.58 0.28 84 1012.9
20260904150238 9 355 1.6 6.4 0.18 0.58 0.25 84 1012.9
20260904145740 9 325 1.6 6.4 0.18 0.41 0.25 84 1012.9
20260904145238 9 338 1.6 4.8 0.20 0.41 0.25 84 1012.9
20260904144738 9 339 0.0 3.2 0.18 0.41 0.23 84 1012.9
20260904144238 9 339 0.0 0.0 0.15 0.41 0.20 84 1012.8
20260904143734 10 338 0.0 0.0 0.13 0.41 0.15 84 1012.8
20260904143236 10 338 0.0 0.0 0.10 0.41 0.15 84 1012.7
20260904142733 10 338 0.0 0.0 0.10 0.41 0.15 83 1012.5
20260904142233 10 340 0.0 1.6 0.10 0.41 0.13 83 1012.2
20260904141731 10 340 0.0 1.6 0.08 0.41 0.10 83 1012.2
20260904141232 10 340 0.0 1.6 0.08 0.41 0.10 83 1012.1
20260904140730 10 339 0.0 1.6 0.05 0.41 0.08 83 1011.9
20260904140232 10 340 0.0 1.6 0.05 0.41 0.08 83 1011.9
20260904135730 10 339 0.0 4.8 0.05 0.36 0.05 83 1011.7
20260904135236 10 339 1.6 4.8 0.03 0.36 0.05 82 1011.6
20260904134730 10 339 1.6 4.8 0.03 0.36 0.05 82 1011.6